Other Surface Observations
Issued by NWS

Home | Current Version | Previous Version | Text Only | Print | Product List | Glossary On
Versions: 1 2 3 4 5 6 7 8 9 10 11 12 13 14 15 16 17 18 19 20 21 22 23 24 25 26 27 28 29 30 31 32 33 34 35 36 37 38 39 40 41 42 43 44 45 46 47 48 49 50
000
SXUS52 KTAE 241410
OSOTAE
OSOTAE
North Florida/South Alabama/Southwest Georgia Weather Roundup
National Weather Service Tallahassee Florida
900 AM EST SAT FEB 24 2018

Note: "fair" indicates few or no clouds below 12,000 feet with no
significant weather and/or obstructions to visibility.

!FLZ017-115-028-034-025-241500
...North Florida...

CITY           SKY/WX    TMP DP  RH WIND       PRES   REMARKS
TALLAHASSEE    FAIR      66  63  90 SE6       30.23R
APALACHICOLA   FAIR      71  69  93 SE6       30.21R
PERRY          PTSUNNY   73  67  81 SE12      30.25R
CROSS CITY     FAIR      69  67  93 SE6       30.29F
JACKSONVILLE   FAIR      71  68  90 S7        30.26S
$$

!FLZ112-006-005-002-011-241500
...Florida Panhandle...

CITY           SKY/WX    TMP DP  RH WIND       PRES   REMARKS
MARIANNA       FAIR      69  63  81 S6        30.21R
BONIFAY        NOT AVBL
PANAMA CITY NW PTSUNNY   67  65  93 E6        30.20R
TYNDALL AFB    FAIR      68  68 100 SE3       30.21R
TYND DRONE APT FAIR      67  67  99 SE6       30.21R
DE FUNIAK SPR  FOG       64  63  99 CALM      30.23R VSB 1
EGLIN AFB      PTSUNNY   70  69  96 SE9       30.19R
DESTIN         CLOUDY    72  68  87 SE9       30.20R
HURLBURT       CLOUDY    70  69  97 SE10      30.18R
CRESTVIEW      CLOUDY    67  65  93 SE6       30.21R
PENSACOLA      CLOUDY    73  69  87 SE13      30.17R
$$

!ALZ063-066-241500
...South Alabama...

CITY           SKY/WX    TMP DP  RH WIND       PRES   REMARKS
DOTHAN         FAIR      66  62  87 S7        30.25R
OZARK CAIRNS   CLOUDY    63  63 100 S5        30.21S FOG
FT RUCKER HELI CLOUDY    62  62 100 SE5       30.21S FOG
RUCKER HELI 3    N/A    N/A N/A N/A MISG        N/A
RUCKER HELI 2  CLOUDY    61  61 100 CALM      30.21S
FLORALA APT    CLOUDY    65  63  93 S8        30.23R FOG
ANDALUSIA      CLOUDY    67  64  90 VRB7      30.20R FOG
TROY           CLOUDY    62  62 100 SE8       30.21S FOG
EUFALA         FAIR      67  63  87 S7        30.21R
MOBILE         CLOUDY    71  69  93 SE12      30.15S FOG
$$

!GAZ120>161-241500
...Southwest and South Central Georgia...

CITY           SKY/WX    TMP DP  RH WIND       PRES   REMARKS
THOMASVILLE    FAIR     N/A N/A N/A S6        30.25R
BAINBRIDGE     FAIR      68  64  88 CALM      30.23S
MOODY AFB      FAIR      70  67  89 SW12      30.23S
VALDOSTA       PTSUNNY   70  66  87 S12       30.24S
MOULTRIE       FAIR      68  64  88 S7        30.25R
BLAKELY        FAIR      66  61  82 CALM      30.24R
ALBANY         FAIR      67  63  87 S7        30.24S
TIFTON         FAIR      67  67 100 S9        30.24S
FITZGERALD     PTSUNNY   66  66 100 S5        30.27S
CORDELE        FAIR      71  65  81 S3        30.25R
AMERICUS       FAIR      64  55  72 S6        30.26R
HOMERVILLE     CLOUDY    66  66 100 S6        30.26S
$$

!GMZ750-755-770-775-241500
...Coastal and Buoy Obs...

STATION/POSITION TIME  TEMP    WIND        PRES    VSBY  WAVE
                       AIR SEA DIR/SP/G                  HT/PER
                 (UTC) (F)     (DEG/KT/KT) (MB)    (MI)  (FT/S)
KEATON BEACH     1400   71     150/  7/  9 1024.2R
CEDAR KEY        1400   70     140/  9/ 10 1024.6R
C TOWER          1400   69     150/ 14/ 15 1023.3R
APALACHICOLA BUO NOT AVBL
PANAMA CITY BUOY 1350   74 76  130/ 14/ 16 1021.8R         3/ 4
MOBILE BUOY      1350   73     150/ 14/ 16 1020.8R         4/ 8
ORANGE BCH AL BU NOT AVBL
$$




USA.gov is the U.S. government's official web portal to all federal, state and local government web resources and services.